Location: *
(45.5224°N, 122.7471°W)
Time: 08:52:02
(UTC+00:00)

Daily predictions for brighter satellites

Satellite Brightness Start Highest point End
(mag) Time Altitude Azimuth Time Altitude Azimuth Time Altitude Azimuth
Landsat 5 4.0 12:03:30 31° WSW 12:03:47 31° W 12:07:15 10° NNW
STARLINK-1058 3.6 12:02:21 32° WSW 12:04:13 78° NNW 12:08:23 10° ENE
Cosmos 1125 Rocket 4.3 12:03:30 24° WSW 12:05:48 35° WNW 12:10:41 10° N
Cosmos 2263 Rocket 2.9 12:00:30 10° S 12:05:58 52° ESE 12:11:29 10° NE
Cosmos 1300 Rocket 3.6 12:01:58 10° NNW 12:06:11 53° W 12:10:20 10° S
BREEZE-M DEB (TANK) 3.6 12:03:57 10° WNW 12:08:17 29° SW 12:11:45 10° SSE
Cosmos 389 Rocket 3.4 12:08:30 28° W 12:09:05 30° WNW 12:12:16 10° N
STARLINK-1043 3.6 12:07:08 28° WSW 12:09:11 73° NNW 12:13:21 10° NE
STARLINK-1065 3.6 12:07:30 28° WSW 12:09:35 73° NNW 12:13:43 10° NE
STARLINK-75 4.3 12:07:07 10° NW 12:10:09 39° NNE 12:13:12 10° E
Cosmos 1689 Rocket 2.9 12:08:05 10° SSE 12:11:00 53° ENE 12:13:56 10° N
Meteor 1-12 Rocket 4.4 12:06:25 10° NNW 12:12:15 57° W 12:17:56 10° S
STARLINK-43 3.5 12:10:10 20° WNW 12:12:25 48° SW 12:15:59 10° SE
Meteor 1-4 Rocket 2.6 12:12:33 20° SSW 12:14:58 61° WNW 12:18:42 10° N
Cosmos 2221 Rocket 4.3 12:15:11 22° WSW 12:17:17 35° WNW 12:21:21 10° N
Cosmos 2297 Rocket 3.7 12:14:33 15° W 12:17:30 21° NW 12:21:47 10° N
PSLV R/B 3.5 12:13:25 10° NNE 12:17:49 86° W 12:22:12 10° SSW
CZ-2C R/B 2.8 12:14:11 10° NNE 12:18:43 60° E 12:23:14 10° S
STARLINK-1063 3.8 12:16:41 23° WSW 12:19:10 64° NNW 12:23:18 10° NE
Okean 2 Rocket 3.9 12:18:25 10° NNW 12:22:23 31° W 12:25:43 13° SSW
STARLINK-1064 3.9 12:21:29 20° WSW 12:24:11 60° NNW 12:28:18 10° NE
Cosmos 2151 Rocket 3.9 12:20:07 10° NNW 12:24:16 42° W 12:28:24 10° SSW
Cosmos 1378 Rocket 3.5 12:20:06 10° S 12:24:26 89° W 12:28:52 10° N
ADEOS II 3.8 12:22:35 10° NNW 12:25:45 16° WNW 12:28:03 13° W
STARLINK-22 4.2 12:23:08 10° NW 12:26:14 41° NNE 12:29:20 10° E
CBERS 1 LM4 rocket 4.5 12:23:53 10° N 12:28:49 68° WNW 12:33:55 10° SSW
USA 234 3.3 12:22:28 10° SE 12:29:02 89° SW 12:35:38 10° NW
STARLINK-1041 4.0 12:26:15 18° W 12:29:10 57° NNW 12:33:15 10° NE
Meteor 2-4 Rocket 4.4 12:27:39 14° SW 12:32:15 37° WNW 12:37:41 10° N
STARLINK-1038 4.0 12:31:01 16° W 12:34:07 54° NNW 12:38:12 10° NE
ARIANE 5 R/B 4.1 12:31:48 10° NNW 12:35:22 19° WNW 12:38:17 12° W
BREEZE-M DEB (TANK) 1.5 12:33:43 16° WSW 12:36:01 65° NNW 12:38:04 10° ENE
IDEFIX/ARIANE 42P 3.2 12:32:38 10° N 12:37:22 36° WNW 12:41:58 11° SW
STARLINK-1046 4.1 12:35:49 15° W 12:39:08 51° NNW 12:43:12 10° NE
STARLINK-41 3.5 12:39:34 10° NW 12:42:42 57° NNE 12:45:50 10° ESE
Cosmos 1378 3.7 12:39:09 10° S 12:42:49 61° E 12:46:31 10° NNE
Cosmos 2195 Rocket 4.5 12:36:40 10° SSW 12:42:49 72° W 12:49:06 10° N
H-2A R/B 4.1 12:39:25 10° NNE 12:43:08 35° E 12:46:43 10° SSE
STARLINK 1040 2.9 12:40:28 10° NW 12:43:11 65° NNE 12:45:53 10° ESE
STARLINK-1039 4.2 12:40:37 13° W 12:44:09 48° NNW 12:48:11 10° NE
Cosmos 2227 Rocket 4.0 12:41:16 10° W 12:44:43 16° NW 12:48:11 10° N
BREEZE M DEB (TANK) 2.9 12:45:51 12° W 12:47:56 54° N 12:52:48 10° ENE
CENTAUR R/B 3.4 12:42:33 11° WSW 12:48:00 38° NW 12:54:43 10° NNE
Okean 2 4.2 12:44:22 10° S 12:48:23 55° E 12:52:24 10° NNE
Cosmos 1627 Rocket 4.4 12:42:20 10° SSW 12:48:26 71° W 12:54:34 10° N
Cosmos 2227 4.3 12:43:13 10° SW 12:48:47 63° WNW 12:54:23 10° NNE
Cosmos 1484 Rocket 4.0 12:45:26 10° NNE 12:49:05 44° E 12:52:40 10° S
STARLINK-1045 4.3 12:45:22 11° W 12:49:08 46° NNW 12:53:08 10° NE
Lacrosse 5 rocket 3.7 12:48:29 10° NNW 12:51:28 20° NNE 12:54:34 10° ENE
Cosmos 1943 3.2 12:46:36 10° NNW 12:52:17 66° WSW 12:57:53 10° SSE
STARLINK-42 3.0 12:50:16 10° WNW 12:53:30 81° NE 12:56:42 10° ESE
PAYLOAD A 4.3 12:48:14 10° N 12:53:30 57° WNW 12:58:37 10° SSW
CZ-4B R/B 4.1 12:50:03 10° NNE 12:53:56 68° ESE 12:57:38 10° S
STARLINK-1050 4.4 12:50:13 10° W 12:54:11 43° NNW 12:58:10 10° NE
Cosmos 1805 3.2 12:52:10 10° N 12:56:04 88° W 12:59:57 10° S
SeaSat 1 2.4 12:52:09 10° SSE 12:57:05 78° WSW 13:02:03 10° NNW
SJ-6F 4.5 12:53:14 10° N 12:57:22 68° WNW 13:01:30 10° SSW
Meteor 2-13 Rocket 4.5 12:52:45 10° S 12:58:48 85° W 13:04:55 10° N
STARLINK-1055 4.5 12:55:13 10° W 12:59:10 41° NNW 13:03:07 10° NE
ADEOS 3.8 12:55:47 10° N 13:00:51 53° WNW 13:05:55 10° SW
Shenzhou-11 Module 3.6 13:01:07 10° SSW 13:03:05 20° SSE 13:05:06 10° ESE
Okean 1 Rocket 3.7 13:01:03 10° NNW 13:05:01 34° W 13:09:00 10° SSW
